Terminal Aerodrome Forecast
Issued by NWS

Home | Current Version | Previous Version | Graphics & Text | Print | Product List | Glossary On
Versions: 1 2 3 4 5 6 7 8 9 10 11 12 13 14 15 16 17 18 19 20 21 22 23 24 25 26
000
FTUS43 KABR 261700
TAFPIR
TAF
KPIR 261726Z 2618/2718 11008KT P6SM BKN030
     FM262000 12009KT P6SM FEW030
     FM270100 12004KT P6SM SKC
     FM271000 VRB03KT P6SM SCT040=

USA.gov is the U.S. government's official web portal to all federal, state and local government web resources and services.